PSLV DEB, 41792

Orbit data source: Space-Track

PSLV DEB, 41792 is space debris in SSO originally from a launch on Mon, 26 Sep 2016 UTC launched from the Sirharikota (SRI). Debris objects in space refer to the collection of defunct objects orbiting the Earth. Examples of debris include non-operational satellites, rocket bodies, and fragments generated from explosions, collisions, or faulty payload assembly.

Loading next visibility...
Identifier
41792, 2016-059K
Orbit
SSO
Country
Flag of ININ / IND
Related business
Manufacturer
VSSC/LPSC
Mission
Spacecraft
Bus & Motor
Unknown
Mass
Unknown
Launch date (UTC)
2016-09-26 (10 years ago)
Launch vehicle
Unknown
Launch site
Sirharikota (SRI)
Object type
Payload
Rocket body
Debris
Shape & HBR
Cone + Cyl, 1.5 m
Radar Cross Section
7.069 m², Large (>1 m²)

Expand to show TLE details & history
Last TLE update: 2 days ago

TLE from 2 days ago
0 PSLV DEB
1 41792U 16059K   26171.34121162  .00002554  00000-0  34456-3 0  9992
2 41792  97.7756 192.6005 0021992 137.5782 222.7135 14.79801922521345
Epoch: 2026-06-20T08:11Z
TLE epoch observation values (Epoch: 2026-06-20T08:11:20.683Z)
Latitude
-0.00006°
Longitude
161.2071°
Altitude
644.317 km
Speed
7.53 km/s
True Right ascension
12h 50m 24s
True Declination
0° 00' 00"
Sunlit
Object was in daylight at epoch
Visualization orbit readout
Latitude
Unknown
Longitude
Unknown
Altitude
Unknown
Speed
Unknown
Apparent Right ascension
Unknown
Apparent Declination
Unknown
Sunlit
N/A
Visualization observer readout
Local Sidereal Time
21:37:39
Azimuth
Unknown
Elevation
Unknown
Doppler factor
Unknown
Orbital elements
Apogee altitude
642.391 km
Perigee altitude
611.579 km
Semi-major axis
7,005.122 km
Eccentricity
0.0022
Inclination
97.7756°
RAAN
192.6005°
Arg. of periapsis
137.5782°
True anomaly
222.5429°
Mean anomaly
222.7135°
Eccentric anomaly
222.62816°
Mean motion
3.70186 °/min
Orbital period
97.25 mins
BSTAR
0.00034456
Loading maneuver chart data...
Computing Atmospheric mass density...
Loading historical data...
Loading historical data...
Loading historical data...
Loading historical data...
Loading historical data...
Loading historical data...
Loading historical data...

Documentation

Showing up to 5 results
|